Zurück zum Katalog

STARLINK-36298

AktivKommunikationVLEO
NORAD 68517·PAYLOAD·🇺🇸 United States

Gestartet Mar 30, 2026 von Cape Canaveral Space Force Station

Loading…

Nächste Überflüge (nächste 24 Stunden)

TLE

AktuellSource: CelesTrak SupGP

Epoche: Sep 15, 2026, 03:09 UTC

1 68517C 26068K   26258.13173611  .00057704  00000+0  17042-2 0  2581
2 68517  53.1580 324.9202 0001156  90.5724 201.2768 15.34373720    15

Verfolge STARLINK-36298 in Echtzeit mit AllMySat

Download on the App Store